| time (UTC) | temp C | wind direction | speed KPH | gust KPH | rain 1hr cm | rain 24hr cm | rain mn cm | humidity % | barometer mb |
| 20260505102042 | 6 | 274 | 6.4 | 11.3 | 0.00 | 0.25 | 0.00 | 89 | 1019.5 |
| 20260505101531 | 6 | 248 | 1.6 | 8.0 | 0.00 | 0.25 | 0.00 | 89 | 1019.3 |
| 20260505101101 | 6 | 274 | 1.6 | 16.1 | 0.00 | 0.25 | 0.00 | 89 | 1019.2 |
| 20260505100534 | 6 | 169 | 3.2 | 16.1 | 0.00 | 0.25 | 0.00 | 89 | 1019.0 |
| 20260505100023 | 6 | 285 | 3.2 | 11.3 | 0.00 | 0.25 | 0.00 | 88 | 1019.1 |
| 20260505095538 | 6 | 248 | 3.2 | 12.9 | 0.00 | 0.25 | 0.00 | 88 | 1019.1 |
| 20260505095029 | 6 | 241 | 6.4 | 12.9 | 0.00 | 0.25 | 0.00 | 88 | 1019.2 |
| 20260505094545 | 6 | 96 | 3.2 | 11.3 | 0.00 | 0.25 | 0.00 | 88 | 1019.1 |
| 20260505094025 | 6 | 255 | 3.2 | 11.3 | 0.00 | 0.25 | 0.00 | 88 | 1019.1 |
| 20260505093558 | 7 | 149 | 3.2 | 14.5 | 0.00 | 0.25 | 0.00 | 88 | 1019.0 |
| 20260505093029 | 7 | 67 | 6.4 | 14.5 | 0.00 | 0.25 | 0.00 | 87 | 1019.0 |
| 20260505092541 | 7 | 141 | 3.2 | 11.3 | 0.00 | 0.25 | 0.00 | 88 | 1019.1 |
| 20260505092055 | 7 | 220 | 3.2 | 11.3 | 0.00 | 0.25 | 0.00 | 88 | 1018.9 |
| 20260505091525 | 7 | 71 | 3.2 | 8.0 | 0.00 | 0.25 | 0.00 | 88 | 1018.9 |
| 20260505091036 | 7 | 320 | 3.2 | 8.0 | 0.00 | 0.25 | 0.00 | 89 | 1018.8 |
| 20260505090528 | 8 | 131 | 1.6 | 6.4 | 0.00 | 0.25 | 0.00 | 89 | 1018.8 |
| 20260505090101 | 8 | 266 | 3.2 | 6.4 | 0.00 | 0.25 | 0.00 | 90 | 1018.8 |
| 20260505085534 | 8 | 255 | 0.0 | 1.6 | 0.00 | 0.25 | 0.00 | 91 | 1018.5 |
| 20260505085054 | 8 | 243 | 0.0 | 1.6 | 0.00 | 0.25 | 0.00 | 90 | 1018.4 |
| 20260505084524 | 8 | 243 | 0.0 | 0.0 | 0.00 | 0.25 | 0.00 | 90 | 1018.6 |
| 20260505084039 | 8 | 243 | 0.0 | 0.0 | 0.00 | 0.25 | 0.00 | 90 | 1018.7 |
| 20260505083534 | 8 | 243 | 0.0 | 0.0 | 0.00 | 0.25 | 0.00 | 90 | 1018.6 |
| 20260505083026 | 8 | 243 | 0.0 | 0.0 | 0.00 | 0.25 | 0.00 | 90 | 1018.7 |
| 20260505082540 | 8 | 243 | 0.0 | 0.0 | 0.00 | 0.25 | 0.00 | 90 | 1018.7 |
| 20260505082037 | 8 | 243 | 0.0 | 0.0 | 0.00 | 0.25 | 0.00 | 90 | 1018.6 |
| 20260505081528 | 8 | 243 | 0.0 | 0.0 | 0.00 | 0.25 | 0.00 | 90 | 1018.6 |
| 20260505081042 | 8 | 243 | 0.0 | 0.0 | 0.00 | 0.25 | 0.00 | 90 | 1018.6 |
| 20260505080557 | 8 | 243 | 0.0 | 0.0 | 0.00 | 0.25 | 0.00 | 90 | 1018.7 |
| 20260505080027 | 8 | 243 | 0.0 | 0.0 | 0.00 | 0.25 | 0.00 | 90 | 1018.6 |
| 20260505075600 | 8 | 243 | 0.0 | 0.0 | 0.00 | 0.25 | 0.00 | 90 | 1018.6 |
| 20260505075054 | 8 | 243 | 0.0 | 0.0 | 0.00 | 0.25 | 0.00 | 90 | 1018.6 |
| 20260505074524 | 8 | 243 | 0.0 | 0.0 | 0.00 | 0.25 | 0.00 | 89 | 1018.6 |
| 20260505074058 | 8 | 243 | 0.0 | 0.0 | 0.00 | 0.25 | 0.00 | 89 | 1018.7 |
| 20260505073553 | 8 | 243 | 0.0 | 0.0 | 0.00 | 0.25 | 0.00 | 89 | 1019.4 |
| 20260505073043 | 8 | 243 | 0.0 | 0.0 | 0.00 | 0.25 | 0.00 | 89 | 1019.5 |
| 20260505072537 | 8 | 243 | 0.0 | 0.0 | 0.00 | 0.25 | 0.00 | 89 | 1019.5 |
| 20260505072032 | 8 | 243 | 0.0 | 0.0 | 0.00 | 0.25 | 0.00 | 89 | 1019.5 |
| 20260505071543 | 8 | 243 | 0.0 | 0.0 | 0.00 | 0.25 | 0.00 | 89 | 1019.6 |
| 20260505071035 | 8 | 243 | 0.0 | 0.0 | 0.00 | 0.25 | 0.00 | 89 | 1019.7 |
| 20260505070530 | 8 | 243 | 0.0 | 0.0 | 0.00 | 0.25 | 0.00 | 89 | 1019.7 |
| 20260505070041 | 8 | 243 | 0.0 | 0.0 | 0.00 | 0.25 | 0.00 | 89 | 1019.7 |
| 20260505065536 | 8 | 243 | 0.0 | 0.0 | 0.00 | 0.25 | 0.00 | 89 | 1019.6 |
| 20260505065036 | 8 | 243 | 0.0 | 0.0 | 0.00 | 0.25 | 0.00 | 89 | 1019.6 |
| 20260505064549 | 8 | 243 | 0.0 | 0.0 | 0.00 | 0.25 | 0.00 | 89 | 1019.7 |
| 20260505064041 | 8 | 243 | 0.0 | 0.0 | 0.00 | 0.25 | 0.00 | 89 | 1019.7 |
| 20260505063536 | 8 | 243 | 0.0 | 0.0 | 0.00 | 0.25 | 0.00 | 89 | 1019.7 |
| 20260505063043 | 8 | 243 | 0.0 | 0.0 | 0.00 | 0.25 | 0.00 | 89 | 1019.7 |
| 20260505062534 | 8 | 243 | 0.0 | 0.0 | 0.00 | 0.25 | 0.00 | 89 | 1019.7 |
| 20260505062046 | 8 | 243 | 0.0 | 0.0 | 0.00 | 0.25 | 0.00 | 89 | 1019.7 |
| 20260505061536 | 8 | 243 | 0.0 | 0.0 | 0.00 | 0.25 | 0.00 | 89 | 1019.7 |
| 20260505061029 | 8 | 243 | 0.0 | 0.0 | 0.00 | 0.25 | 0.00 | 89 | 1019.7 |
| 20260505060542 | 8 | 243 | 0.0 | 0.0 | 0.00 | 0.25 | 0.00 | 89 | 1019.7 |
| 20260505060051 | 8 | 243 | 0.0 | 0.0 | 0.00 | 0.25 | 0.25 | 88 | 1019.7 |
| 20260505055535 | 8 | 243 | 0.0 | 0.0 | 0.00 | 0.25 | 0.25 | 88 | 1019.7 |
| 20260505055031 | 8 | 243 | 0.0 | 0.0 | 0.00 | 0.25 | 0.25 | 88 | 1019.7 |
| 20260505054542 | 8 | 243 | 0.0 | 0.0 | 0.03 | 0.25 | 0.25 | 88 | 1019.8 |
| 20260505054036 | 8 | 243 | 0.0 | 0.0 | 0.03 | 0.25 | 0.25 | 88 | 1019.8 |
| 20260505053531 | 8 | 243 | 0.0 | 0.0 | 0.03 | 0.25 | 0.25 | 88 | 1019.6 |
| 20260505053038 | 8 | 243 | 0.0 | 0.0 | 0.03 | 0.25 | 0.25 | 88 | 1019.5 |
| 20260505052531 | 8 | 243 | 0.0 | 0.0 | 0.03 | 0.25 | 0.25 | 88 | 1019.6 |
| 20260505052102 | 9 | 243 | 0.0 | 0.0 | 0.03 | 0.25 | 0.25 | 88 | 1019.5 |
| 20260505051533 | 9 | 243 | 0.0 | 0.0 | 0.03 | 0.25 | 0.25 | 88 | 1019.5 |
| 20260505051027 | 9 | 243 | 0.0 | 0.0 | 0.03 | 0.25 | 0.25 | 88 | 1019.6 |
| 20260505050537 | 9 | 243 | 0.0 | 0.0 | 0.05 | 0.25 | 0.25 | 88 | 1019.7 |
| 20260505041525 | 10 | 243 | 0.0 | 1.6 | 0.18 | 0.23 | 0.23 | 86 | 1019.9 |
| 20260505041035 | 10 | 243 | 0.0 | 1.6 | 0.18 | 0.23 | 0.23 | 86 | 1020.2 |
| 20260505040528 | 10 | 243 | 0.0 | 0.0 | 0.15 | 0.20 | 0.20 | 85 | 1020.0 |
| 20260505040037 | 10 | 243 | 0.0 | 1.6 | 0.15 | 0.20 | 0.20 | 85 | 1019.8 |
| 20260505035528 | 10 | 243 | 0.0 | 1.6 | 0.15 | 0.20 | 0.20 | 85 | 1019.8 |
| 20260505035025 | 10 | 243 | 0.0 | 6.4 | 0.15 | 0.20 | 0.20 | 84 | 1019.7 |
| 20260505034554 | 10 | 223 | 0.0 | 6.4 | 0.13 | 0.18 | 0.18 | 84 | 1019.8 |
| 20260505034043 | 10 | 303 | 1.6 | 6.4 | 0.10 | 0.15 | 0.15 | 83 | 1019.8 |
| 20260505033535 | 10 | 241 | 1.6 | 4.8 | 0.10 | 0.15 | 0.15 | 83 | 1019.7 |
| 20260505033028 | 10 | 246 | 1.6 | 11.3 | 0.08 | 0.13 | 0.13 | 82 | 1019.8 |
| 20260505032543 | 11 | 261 | 3.2 | 11.3 | 0.05 | 0.10 | 0.10 | 81 | 1019.6 |
| 20260505032036 | 11 | 245 | 1.6 | 4.8 | 0.03 | 0.08 | 0.08 | 79 | 1019.4 |
| 20260505031547 | 11 | 229 | 1.6 | 3.2 | 0.00 | 0.05 | 0.05 | 78 | 1019.3 |
| 20260505031041 | 11 | 236 | 0.0 | 6.4 | 0.00 | 0.05 | 0.05 | 77 | 1019.2 |
| 20260505030533 | 11 | 266 | 1.6 | 6.4 | 0.00 | 0.05 | 0.05 | 76 | 1019.1 |
| 20260505030024 | 11 | 252 | 3.2 | 4.8 | 0.00 | 0.05 | 0.05 | 76 | 1019.7 |
| 20260505025558 | 11 | 254 | 1.6 | 3.2 | 0.00 | 0.05 | 0.05 | 76 | 1019.5 |
| 20260505025035 | 11 | 205 | 0.0 | 3.2 | 0.00 | 0.05 | 0.05 | 77 | 1019.3 |
| 20260505024551 | 11 | 290 | 1.6 | 3.2 | 0.00 | 0.05 | 0.05 | 79 | 1019.3 |
| 20260505024024 | 11 | 267 | 1.6 | 3.2 | 0.00 | 0.05 | 0.05 | 81 | 1019.1 |
| 20260505023559 | 11 | 120 | 0.0 | 0.0 | 0.00 | 0.05 | 0.05 | 80 | 1019.0 |
| 20260505023030 | 11 | 120 | 0.0 | 0.0 | 0.00 | 0.05 | 0.05 | 79 | 1018.7 |
| 20260505022526 | 11 | 120 | 0.0 | 0.0 | 0.03 | 0.05 | 0.05 | 79 | 1018.5 |
| 20260505022101 | 11 | 120 | 0.0 | 0.0 | 0.03 | 0.05 | 0.05 | 79 | 1018.5 |
| 20260505021534 | 11 | 120 | 0.0 | 0.0 | 0.03 | 0.05 | 0.05 | 79 | 1018.5 |
| 20260505021027 | 12 | 120 | 0.0 | 0.0 | 0.03 | 0.05 | 0.05 | 78 | 1018.4 |
| 20260505020540 | 12 | 120 | 0.0 | 0.0 | 0.03 | 0.05 | 0.05 | 79 | 1018.4 |
| 20260505020034 | 12 | 120 | 0.0 | 0.0 | 0.03 | 0.05 | 0.05 | 78 | 1018.5 |
| 20260505015547 | 12 | 120 | 0.0 | 0.0 | 0.03 | 0.05 | 0.05 | 78 | 1018.6 |
| 20260505015042 | 12 | 120 | 0.0 | 0.0 | 0.03 | 0.05 | 0.05 | 77 | 1018.6 |
| 20260505014536 | 12 | 120 | 0.0 | 0.0 | 0.03 | 0.05 | 0.05 | 77 | 1018.4 |
| 20260505014029 | 12 | 120 | 0.0 | 0.0 | 0.03 | 0.05 | 0.05 | 77 | 1018.1 |
| 20260505013544 | 12 | 120 | 0.0 | 0.0 | 0.03 | 0.05 | 0.05 | 77 | 1018.0 |
| 20260505013036 | 12 | 120 | 0.0 | 0.0 | 0.03 | 0.05 | 0.05 | 76 | 1018.0 |
| 20260505012550 | 12 | 120 | 0.0 | 0.0 | 0.03 | 0.03 | 0.03 | 76 | 1018.1 |
| 20260505012044 | 12 | 120 | 0.0 | 0.0 | 0.03 | 0.03 | 0.03 | 75 | 1018.2 |
| 20260505011534 | 12 | 120 | 0.0 | 0.0 | 0.03 | 0.03 | 0.03 | 74 | 1018.1 |
| 20260505011028 | 12 | 120 | 0.0 | 3.2 | 0.03 | 0.03 | 0.03 | 73 | 1018.1 |
| 20260505010544 | 12 | 120 | 0.0 | 3.2 | 0.03 | 0.03 | 0.03 | 70 | 1018.0 |
| 20260505010034 | 12 | 109 | 0.0 | 1.6 | 0.03 | 0.03 | 0.03 | 71 | 1017.8 |
| 20260505005527 | 13 | 108 | 0.0 | 3.2 | 0.03 | 0.03 | 0.03 | 71 | 1017.9 |
| 20260505005024 | 13 | 108 | 0.0 | 3.2 | 0.03 | 0.03 | 0.03 | 71 | 1017.8 |
| 20260505004535 | 13 | 268 | 0.0 | 1.6 | 0.03 | 0.03 | 0.03 | 71 | 1017.9 |
| 20260505004049 | 13 | 268 | 0.0 | 3.2 | 0.03 | 0.03 | 0.03 | 70 | 1018.0 |
| 20260505003541 | 13 | 264 | 0.0 | 8.0 | 0.03 | 0.03 | 0.03 | 68 | 1018.0 |
| 20260505003032 | 13 | 284 | 3.2 | 8.0 | 0.03 | 0.03 | 0.03 | 65 | 1018.2 |
| 20260505002544 | 14 | 283 | 1.6 | 9.7 | 0.00 | 0.00 | 0.00 | 64 | 1018.0 |
| 20260505002059 | 15 | 265 | 1.6 | 9.7 | 0.00 | 0.00 | 0.00 | 59 | 1018.1 |
| 20260505001606 | 15 | 275 | 3.2 | 6.4 | 0.00 | 0.00 | 0.00 | 55 | 1017.9 |
| 20260505001032 | 15 | 252 | 1.6 | 3.2 | 0.00 | 0.00 | 0.00 | 54 | 1018.0 |
| 20260505000542 | 15 | 184 | 0.0 | 4.8 | 0.00 | 0.00 | 0.00 | 50 | 1017.8 |
| 20260505000030 | 15 | 225 | 1.6 | 4.8 | 0.00 | 0.00 | 0.00 | 47 | 1017.6 |
| 20260504235541 | 15 | 131 | 0.0 | 3.2 | 0.00 | 0.00 | 0.00 | 47 | 1017.5 |
| 20260504235038 | 15 | 301 | 1.6 | 4.8 | 0.00 | 0.00 | 0.00 | 47 | 1017.3 |
| 20260504234528 | 15 | 185 | 1.6 | 4.8 | 0.00 | 0.00 | 0.00 | 50 | 1017.2 |
| 20260504234038 | 15 | 110 | 1.6 | 3.2 | 0.00 | 0.00 | 0.00 | 51 | 1017.2 |
| 20260504233532 | 16 | 189 | 0.0 | 9.7 | 0.00 | 0.00 | 0.00 | 55 | 1017.1 |
| 20260504233103 | 16 | 229 | 3.2 | 9.7 | 0.00 | 0.00 | 0.00 | 46 | 1017.0 |
| 20260504232532 | 16 | 254 | 3.2 | 8.0 | 0.00 | 0.00 | 0.00 | 43 | 1017.0 |
| 20260504232044 | 17 | 258 | 3.2 | 8.0 | 0.00 | 0.00 | 0.00 | 42 | 1016.9 |
| 20260504231532 | 17 | 276 | 3.2 | 6.4 | 0.00 | 0.00 | 0.00 | 41 | 1016.9 |
| 20260504231043 | 17 | 295 | 1.6 | 6.4 | 0.00 | 0.00 | 0.00 | 40 | 1016.9 |
| 20260504230553 | 17 | 283 | 1.6 | 9.7 | 0.00 | 0.00 | 0.00 | 39 | 1016.5 |
| 20260504230039 | 17 | 273 | 4.8 | 9.7 | 0.00 | 0.00 | 0.00 | 38 | 1016.4 |
| 20260504225533 | 17 | 232 | 1.6 | 8.0 | 0.00 | 0.00 | 0.00 | 39 | 1016.3 |
| 20260504225042 | 17 | 241 | 4.8 | 9.7 | 0.00 | 0.00 | 0.00 | 38 | 1016.3 |
| 20260504224549 | 17 | 144 | 3.2 | 9.7 | 0.00 | 0.00 | 0.00 | 37 | 1016.2 |
| 20260504224024 | 17 | 200 | 3.2 | 14.5 | 0.00 | 0.00 | 0.00 | 38 | 1016.3 |
| 20260504223539 | 17 | 220 | 6.4 | 14.5 | 0.00 | 0.00 | 0.00 | 37 | 1016.2 |
| 20260504223047 | 18 | 301 | 4.8 | 11.3 | 0.00 | 0.00 | 0.00 | 35 | 1015.9 |
| 20260504222541 | 18 | 233 | 4.8 | 11.3 | 0.00 | 0.00 | 0.00 | 35 | 1016.1 |
| 20260504222033 | 18 | 68 | 3.2 | 11.3 | 0.00 | 0.00 | 0.00 | 35 | 1015.9 |
| 20260504221558 | 18 | 216 | 3.2 | 6.4 | 0.00 | 0.00 | 0.00 | 36 | 1015.9 |
| 20260504221038 | 18 | 283 | 1.6 | 11.3 | 0.00 | 0.00 | 0.00 | 35 | 1015.9 |
| 20260504220529 | 18 | 297 | 3.2 | 12.9 | 0.00 | 0.00 | 0.00 | 35 | 1015.9 |
| 20260504220040 | 18 | 75 | 3.2 | 24.1 | 0.00 | 0.00 | 0.00 | 33 | 1015.9 |
| 20260504215531 | 19 | 90 | 6.4 | 24.1 | 0.00 | 0.00 | 0.00 | 31 | 1015.6 |
| 20260504215025 | 20 | 92 | 3.2 | 11.3 | 0.00 | 0.00 | 0.00 | 27 | 1015.5 |
| 20260504214541 | 20 | 117 | 1.6 | 11.3 | 0.00 | 0.00 | 0.00 | 26 | 1015.3 |
| 20260504214035 | 20 | 104 | 1.6 | 11.3 | 0.00 | 0.00 | 0.00 | 27 | 1015.1 |
| 20260504213541 | 20 | 75 | 4.8 | 11.3 | 0.00 | 0.00 | 0.00 | 27 | 1015.1 |
| 20260504213055 | 20 | 105 | 3.2 | 8.0 | 0.00 | 0.00 | 0.00 | 27 | 1015.0 |
| 20260504212528 | 20 | 126 | 4.8 | 8.0 | 0.00 | 0.00 | 0.00 | 27 | 1015.1 |
| 20260504212024 | 20 | 75 | 3.2 | 8.0 | 0.00 | 0.00 | 0.00 | 28 | 1015.2 |
| 20260504211557 | 20 | 89 | 3.2 | 9.7 | 0.00 | 0.00 | 0.00 | 29 | 1015.3 |
| 20260504211030 | 20 | 97 | 4.8 | 9.7 | 0.00 | 0.00 | 0.00 | 28 | 1015.3 |
| 20260504210530 | 20 | 86 | 3.2 | 8.0 | 0.00 | 0.00 | 0.00 | 28 | 1015.4 |
| 20260504210042 | 20 | 224 | 1.6 | 12.9 | 0.00 | 0.00 | 0.00 | 29 | 1015.3 |
| 20260504205536 | 20 | 101 | 4.8 | 12.9 | 0.00 | 0.00 | 0.00 | 27 | 1015.5 |
| 20260504205052 | 21 | 300 | 3.2 | 8.0 | 0.00 | 0.00 | 0.00 | 27 | 1015.5 |
| 20260504204526 | 21 | 84 | 1.6 | 8.0 | 0.00 | 0.00 | 0.00 | 29 | 1015.7 |
| 20260504204044 | 21 | 281 | 4.8 | 8.0 | 0.00 | 0.00 | 0.00 | 29 | 1015.8 |
| 20260504203558 | 21 | 261 | 3.2 | 11.3 | 0.00 | 0.00 | 0.00 | 31 | 1016.0 |
| 20260504203030 | 20 | 249 | 1.6 | 11.3 | 0.00 | 0.00 | 0.00 | 31 | 1016.2 |
| 20260504202524 | 21 | 300 | 1.6 | 6.4 | 0.00 | 0.00 | 0.00 | 30 | 1016.3 |
| 20260504202103 | 21 | 267 | 3.2 | 8.0 | 0.00 | 0.00 | 0.00 | 29 | 1016.2 |
| 20260504201534 | 21 | 279 | 3.2 | 8.0 | 0.00 | 0.00 | 0.00 | 29 | 1016.3 |
| 20260504201027 | 20 | 79 | 3.2 | 8.0 | 0.00 | 0.00 | 0.00 | 29 | 1016.3 |
| 20260504200543 | 20 | 268 | 1.6 | 8.0 | 0.00 | 0.00 | 0.00 | 30 | 1016.3 |
| 20260504200036 | 20 | 252 | 3.2 | 8.0 | 0.00 | 0.00 | 0.00 | 31 | 1016.4 |
| 20260504195527 | 19 | 80 | 4.8 | 9.7 | 0.00 | 0.00 | 0.00 | 31 | 1016.5 |
| 20260504195042 | 18 | 250 | 3.2 | 11.3 | 0.00 | 0.00 | 0.00 | 34 | 1016.4 |
| 20260504194536 | 18 | 129 | 6.4 | 11.3 | 0.00 | 0.00 | 0.00 | 34 | 1016.5 |
| 20260504194030 | 18 | 64 | 3.2 | 8.0 | 0.00 | 0.00 | 0.00 | 36 | 1016.4 |
| 20260504193546 | 18 | 233 | 1.6 | 19.3 | 0.00 | 0.00 | 0.00 | 35 | 1016.3 |
| 20260504193038 | 18 | 119 | 8.0 | 19.3 | 0.00 | 0.00 | 0.00 | 33 | 1016.4 |
| 20260504192532 | 18 | 239 | 3.2 | 14.5 | 0.00 | 0.00 | 0.00 | 34 | 1016.4 |
| 20260504192049 | 18 | 73 | 3.2 | 8.0 | 0.00 | 0.00 | 0.00 | 37 | 1016.4 |
| 20260504191528 | 18 | 58 | 3.2 | 8.0 | 0.00 | 0.00 | 0.00 | 34 | 1016.6 |
| 20260504191058 | 18 | 225 | 3.2 | 4.8 | 0.00 | 0.00 | 0.00 | 37 | 1016.8 |
| 20260504190533 | 18 | 304 | 0.0 | 4.8 | 0.00 | 0.00 | 0.00 | 36 | 1016.9 |
| 20260504190044 | 18 | 265 | 1.6 | 4.8 | 0.00 | 0.00 | 0.00 | 37 | 1016.9 |
| 20260504185535 | 18 | 66 | 1.6 | 6.4 | 0.00 | 0.00 | 0.00 | 34 | 1016.7 |
| 20260504185032 | 19 | 277 | 0.0 | 6.4 | 0.00 | 0.00 | 0.00 | 30 | 1016.6 |
| 20260504184544 | 19 | 248 | 1.6 | 4.8 | 0.00 | 0.00 | 0.00 | 29 | 1016.3 |
| 20260504184037 | 20 | 120 | 1.6 | 6.4 | 0.00 | 0.00 | 0.00 | 26 | 1016.2 |
| 20260504183551 | 20 | 106 | 3.2 | 8.0 | 0.00 | 0.00 | 0.00 | 25 | 1016.1 |
| 20260504183032 | 20 | 335 | 1.6 | 14.5 | 0.00 | 0.00 | 0.00 | 25 | 1016.4 |
| 20260504182543 | 20 | 75 | 4.8 | 19.3 | 0.00 | 0.00 | 0.00 | 23 | 1016.2 |
| 20260504182036 | 20 | 84 | 9.7 | 27.4 | 0.00 | 0.00 | 0.00 | 23 | 1016.1 |
| 20260504181544 | 21 | 77 | 8.0 | 27.4 | 0.00 | 0.00 | 0.00 | 21 | 1016.1 |
| 20260504181036 | 21 | 83 | 3.2 | 6.4 | 0.00 | 0.00 | 0.00 | 23 | 1015.9 |
| 20260504180550 | 21 | 96 | 1.6 | 3.2 | 0.00 | 0.00 | 0.00 | 22 | 1015.9 |
| 20260504180041 | 21 | 108 | 1.6 | 3.2 | 0.00 | 0.00 | 0.00 | 23 | 1015.9 |
| 20260504175531 | 21 | 110 | 1.6 | 8.0 | 0.00 | 0.00 | 0.00 | 22 | 1015.8 |
| 20260504175042 | 21 | 114 | 0.0 | 8.0 | 0.00 | 0.00 | 0.00 | 23 | 1015.8 |
| 20260504174540 | 21 | 85 | 0.0 | 6.4 | 0.00 | 0.00 | 0.00 | 24 | 1015.9 |
| 20260504174035 | 21 | 101 | 1.6 | 6.4 | 0.00 | 0.00 | 0.00 | 22 | 1016.0 |
| 20260504173528 | 21 | 287 | 3.2 | 6.4 | 0.00 | 0.00 | 0.00 | 20 | 1016.1 |
| 20260504173059 | 22 | 316 | 0.0 | 6.4 | 0.00 | 0.00 | 0.00 | 22 | 1016.2 |
| 20260504172530 | 22 | 83 | 3.2 | 6.4 | 0.00 | 0.00 | 0.00 | 22 | 1016.2 |
| 20260504172039 | 23 | 75 | 0.0 | 3.2 | 0.00 | 0.00 | 0.00 | 22 | 1016.3 |
| 20260504171529 | 22 | 292 | 0.0 | 3.2 | 0.00 | 0.00 | 0.00 | 23 | 1016.3 |
| 20260504171041 | 22 | 298 | 0.0 | 4.8 | 0.00 | 0.00 | 0.00 | 24 | 1016.3 |
| 20260504170534 | 22 | 253 | 1.6 | 6.4 | 0.00 | 0.00 | 0.00 | 24 | 1016.4 |
| 20260504151039 | 16 | 239 | 0.0 | 3.2 | 0.00 | 0.00 | 0.00 | 37 | 1017.8 |
| 20260504150535 | 15 | 215 | 1.6 | 3.2 | 0.00 | 0.00 | 0.00 | 40 | 1017.9 |
| 20260504141027 | 10 | 216 | 0.0 | 1.6 | 0.00 | 0.00 | 0.00 | 56 | 1018.2 |
| 20260504140539 | 9 | 218 | 0.0 | 1.6 | 0.00 | 0.00 | 0.00 | 56 | 1018.1 |
| 20260504130605 | 8 | 218 | 0.0 | 0.0 | 0.00 | 0.00 | 0.00 | 52 | 1017.9 |
| 20260504110540 | 7 | 211 | 0.0 | 1.6 | 0.00 | 0.00 | 0.00 | 54 | 1018.0 |